Jamestown, ND

9:48 AM CDT on March 23, 2017 (GMT -0500)
Jamestown Municipal

Weather History for KJMS - November, 2012

Change the Weather History Date:

Saturday, November 24, 2012

  Actual Average Record
Temperature  
Mean Temperature 23 °F 23 °F  
Max Temperature 36 °F 32 °F 62 °F (1942)
Min Temperature 10 °F 14 °F -17 °F (1951)
Degree Days  
Heating Degree Days 42 42  
Month to date heating degree days 825 852  
Since 1 July heating degree days 1791 1819  
Cooling Degree Days 0 0  
Month to date cooling degree days 0 0  
Year to date cooling degree days 575 446  
Moisture  
Dew Point 18 °F    
Average Humidity 71    
Maximum Humidity 88    
Minimum Humidity 54    
Precipitation  
Precipitation T in 0.02 in 0.46 in (1993)
Month to date precipitation 0.26 0.54  
Year to date precipitation 12.81 18.28  
Sea Level Pressure  
Sea Level Pressure 29.96 in    
Wind  
Wind Speed 14 mph (SW)    
Max Wind Speed 25 mph    
Max Gust Speed 31 mph    
Visibility 10 miles    
Events      
T = Trace of Precipitation, MM = Missing Value Source: NWS Daily Summary

Daily Weather History Graph

Daily Weather History Graph

Search for Another Location

Airport or City:

Trip Planner

Search our weather history database for the weather conditions in past years. The results will help you decide how hot, cold, wet, or windy it might be!

Date:

Astronomy

Nov. 24, 2012 Rise Set
Actual Time 7:51 AM CST 4:51 PM CST
Civil Twilight 7:17 AM CST 5:25 PM CST
Nautical Twilight 6:39 AM CST 6:03 PM CST
Astronomical Twilight 6:03 AM CST 6:39 PM CST
Moon 2:46 PM CST (11/24) 3:58 AM CST (11/24)
Length of Visible Light 10h 08m
Length of Day
9h 00m
Waxing Gibbous, 87% of the Moon is Illuminated
Nov 24
Waxing Gibbous
Nov 28
Full
Dec 6
Last Quarter
Dec 13
New
Dec 19
First Quarter

Hourly Weather History & Observations

Time (CST) Temp. Windchill Dew Point Humidity Pressure Visibility Wind Dir Wind Speed Gust Speed Precip Events Conditions
12:56 AM 10.9 °F 0.2 °F 6.1 °F 81% 30.35 in 10.0 mi SSE 6.9 mph - N/A   Mostly Cloudy
2:56 AM 12.9 °F -1.6 °F 8.1 °F 81% 30.28 in 10.0 mi South 12.7 mph - N/A   Overcast
3:56 AM 14.0 °F 1.2 °F 10.0 °F 84% 30.22 in 10.0 mi SSE 10.4 mph - N/A   Overcast
4:56 AM 14.0 °F 0.5 °F 10.0 °F 84% 30.21 in 10.0 mi SSE 11.5 mph - N/A   Overcast
5:56 AM 15.1 °F 1.8 °F 10.0 °F 80% 30.18 in 10.0 mi SSE 11.5 mph - N/A   Overcast
6:56 AM 16.0 °F 1.7 °F 10.9 °F 81% 30.13 in 10.0 mi SSE 13.8 mph - N/A   Overcast
7:56 AM 17.1 °F 3.6 °F 12.0 °F 81% 30.07 in 10.0 mi SSE 12.7 mph - N/A   Mostly Cloudy
8:56 AM 19.0 °F 3.6 °F 12.9 °F 77% 30.02 in 10.0 mi South 18.4 mph 24.2 mph N/A   Partly Cloudy
9:56 AM 21.9 °F 8.7 °F 15.1 °F 75% 30.00 in 10.0 mi South 15.0 mph 23.0 mph N/A   Clear
10:56 AM 25.0 °F 12.2 °F 16.0 °F 69% 29.96 in 10.0 mi South 16.1 mph - N/A   Overcast
11:56 AM 27.0 °F 14.7 °F 17.1 °F 66% 29.91 in 10.0 mi South 16.1 mph - N/A   Overcast
12:56 PM 30.0 °F 19.5 °F 17.1 °F 59% 29.86 in 10.0 mi SSW 13.8 mph - N/A   Overcast
1:56 PM 32.0 °F 23.6 °F 18.0 °F 56% 29.83 in 10.0 mi SW 10.4 mph 18.4 mph N/A   Overcast
2:56 PM 33.1 °F 26.1 °F 21.0 °F 61% 29.81 in 10.0 mi SW 8.1 mph - 0.00 in   Overcast
3:27 PM 33.8 °F 27.0 °F 21.2 °F 60% 29.74 in 10.0 mi West 8.1 mph - N/A   Overcast
3:56 PM 34.0 °F 28.8 °F 21.9 °F 61% 29.81 in 10.0 mi West 5.8 mph - N/A   Overcast
4:29 PM 33.8 °F 27.0 °F 23.0 °F 65% 29.75 in 10.0 mi West 8.1 mph - N/A   Overcast
4:56 PM 34.0 °F 26.6 °F 24.1 °F 67% 29.82 in 10.0 mi West 9.2 mph - N/A   Overcast
5:56 PM 34.0 °F 26.6 °F 25.0 °F 70% 29.84 in 10.0 mi West 9.2 mph - N/A   Mostly Cloudy
6:56 PM 36.0 °F 24.4 °F 28.9 °F 76% 29.85 in 10.0 mi NW 23.0 mph - N/A   Overcast
7:03 PM 35.6 °F 24.8 °F 28.4 °F 75% 29.78 in 10.0 mi NW 19.6 mph 29.9 mph N/A   Overcast
7:56 PM 33.1 °F 21.5 °F 28.0 °F 82% 29.89 in 10.0 mi NW 19.6 mph 27.6 mph N/A   Overcast
8:56 PM 30.9 °F 19.4 °F 26.1 °F 82% 29.89 in 10.0 mi NNW 17.3 mph - N/A   Overcast
9:56 PM 28.0 °F 13.9 °F 23.0 °F 81% 29.93 in 10.0 mi NNW 23.0 mph - N/A   Overcast
10:56 PM 26.1 °F 12.7 °F 21.0 °F 81% 29.95 in 10.0 mi NNW 18.4 mph - N/A   Overcast
11:56 PM 25.0 °F 13.1 °F 19.9 °F 81% 29.97 in 10.0 mi NNW 13.8 mph - N/A   Overcast